GW4151 Weather Reports


time (UTC)temp
F
wind
direction
speed
knots
gust
knots
rain 1hr
in
rain 24hr
in
rain mn
in
humidity
%
barometer
mb
20260904195403 76 48 0.9 1.7 0.00 2.06 2.06 87 993.8
20260904193859 76 153 1.7 2.6 0.00 2.06 2.06 87 993.8
20260904192356 75 25 2.6 2.6 0.00 2.06 2.06 88 993.8
20260904190851 76 203 0.9 1.7 0.00 2.06 2.06 87 994.0
20260904185349 75 147 1.7 3.5 0.00 2.06 2.06 88 994.1
20260904183845 74 172 1.7 2.6 0.00 2.06 2.06 88 994.3
20260904182342 72 179 0.0 1.7 0.00 2.06 2.06 97 994.1
20260904180839 72 229 0.9 0.9 0.00 2.06 2.06 99 994.5
20260904175338 72 35 1.7 1.7 0.00 2.06 2.06 99 994.0
20260904173836 72 183 0.0 0.0 0.00 2.06 2.06 99 994.2
20260904172332 71 166 0.0 0.9 0.00 2.06 2.06 99 994.7
20260904170831 71 94 0.9 1.7 0.00 2.06 2.06 99 994.3
20260904165325 70 195 0.9 2.6 0.00 2.06 2.06 99 994.0
20260904163823 70 13 3.5 5.2 0.00 2.06 2.06 99 993.0
20260904162323 69 173 3.5 13.0 0.00 2.06 2.06 99 991.9
20260904160820 70 127 4.3 12.2 0.12 2.05 2.05 99 993.0
20260904155316 69 212 3.5 5.2 0.00 2.02 2.02 99 995.0
20260904153811 69 202 0.0 0.9 0.00 2.02 2.02 99 994.8
20260904152309 69 138 2.6 3.5 0.00 2.02 2.02 99 995.1
20260904150805 69 221 1.7 3.5 0.19 2.01 2.01 99 995.0
20260904145306 69 161 1.7 2.6 0.00 1.97 1.97 99 994.9
20260904143803 69 216 3.5 5.2 0.00 1.97 1.97 99 995.0
20260904142306 69 201 0.9 5.2 0.07 1.97 1.97 99 996.2
20260904140800 69 166 1.7 1.7 0.83 1.96 1.96 99 996.6
20260904135256 69 197 1.7 1.7 0.00 1.81 1.81 99 996.2
20260904133752 69 185 0.0 0.9 0.00 1.81 1.81 99 995.5
20260904132249 69 143 0.0 1.7 0.05 1.80 1.80 99 996.3
20260904130749 69 335 5.2 7.0 0.59 1.79 1.79 99 996.5
20260904125246 69 19 5.2 9.6 0.42 1.51 1.51 99 996.4
20260904123743 70 317 5.2 7.8 0.35 1.40 1.40 99 995.3
20260904122239 69 298 1.7 3.5 0.12 1.33 1.33 99 994.9
20260904120738 70 284 2.6 6.1 0.05 1.30 1.30 99 994.4
20260904115235 70 47 1.7 5.2 0.12 1.28 1.28 99 994.5
20260904113731 70 167 0.9 1.7 0.12 1.25 1.25 99 994.5
20260904112226 70 63 0.9 0.9 0.12 1.23 1.23 99 994.9
20260904110725 70 137 3.5 7.0 5.27 1.17 1.17 99 994.7
20260904105220 71 298 10.4 14.8 0.19 0.09 0.09 99 995.1
20260904103720 71 188 0.0 0.0 0.12 0.04 0.04 99 993.5
20260904102217 71 187 0.0 0.0 0.00 0.01 0.01 99 993.7
20260904100716 70 190 0.0 0.0 0.00 0.01 0.01 99 993.2
20260904095212 71 178 0.0 0.0 0.00 0.01 0.01 98 993.3
20260904093710 71 196 0.0 0.0 0.00 0.01 0.01 98 993.0
20260904092207 71 89 0.0 0.0 0.00 0.01 0.01 98 993.1
20260904090705 71 170 0.0 0.0 0.00 0.01 0.01 98 993.1
20260904085201 71 180 0.0 0.0 0.00 0.00 0.00 98 992.4
20260904083700 71 183 0.0 0.0 0.00 0.00 0.00 97 993.3
20260904082158 72 187 0.0 0.0 0.00 0.00 0.00 96 993.3
20260904080656 72 161 0.0 0.0 0.00 0.00 0.00 95 993.3
20260904075154 72 181 0.0 0.0 0.00 0.00 0.00 96 993.3
20260904073649 71 192 0.0 0.0 0.00 0.00 0.00 97 993.1
20260904072147 71 178 0.0 0.0 0.00 0.00 0.00 97 993.8
20260904070643 71 43 0.9 1.7 0.00 0.00 0.00 97 993.5
20260904065141 71 129 0.0 0.0 0.00 0.00 0.00 97 993.6
20260904063638 71 174 0.0 0.9 0.00 0.00 0.00 96 992.9
20260904062137 71 157 2.6 5.2 0.00 0.00 0.00 95 993.5
20260904060636 72 149 2.6 2.6 0.00 0.00 0.00 94 994.2
20260904055133 71 191 0.9 0.9 0.00 0.00 0.00 98 994.6
20260904053631 70 321 0.0 0.0 0.00 0.00 0.00 99 994.9
20260904052130 70 176 0.0 0.0 0.00 0.00 0.00 99 994.5
20260904050628 70 194 0.0 0.0 0.00 0.00 0.00 99 994.4
20260904045124 70 193 0.0 0.0 0.00 0.00 0.00 99 994.5
20260904043624 70 180 0.0 0.0 0.00 0.00 0.00 99 994.6
20260904042122 70 210 0.0 0.0 0.00 0.00 0.00 99 994.8
20260904040621 70 198 0.0 0.0 0.00 0.00 0.00 99 994.9
20260904035118 70 174 0.0 0.0 0.00 0.24 0.24 99 995.1
20260904033615 70 191 0.0 0.0 0.00 0.24 0.24 99 995.3
20260904032112 71 192 0.0 0.0 0.00 0.24 0.24 98 995.3
20260904030609 71 186 0.0 0.0 0.00 0.24 0.24 98 995.2
20260904025107 71 182 0.0 0.0 0.00 0.24 0.24 97 995.1
20260904023606 72 171 0.0 1.7 0.00 0.24 0.24 97 995.2
20260904022104 72 166 0.0 1.7 0.00 0.24 0.24 97 994.8
20260904020601 71 192 0.0 0.0 0.00 0.24 0.24 97 994.5
20260904015101 72 192 0.0 0.0 0.00 0.24 0.24 97 994.7
20260904013600 72 160 0.0 0.9 0.00 0.24 0.24 97 994.5
20260904012055 73 176 0.0 0.0 0.00 0.24 0.24 97 994.6
20260904010552 73 184 0.0 0.0 0.00 0.24 0.24 96 994.5
20260904005049 73 180 0.0 0.9 0.00 0.24 0.24 96 994.3
20260904003547 73 173 0.0 0.0 0.00 0.24 0.24 96 994.2
20260904002044 74 193 0.0 0.0 0.00 0.24 0.24 94 994.1
20260904000538 75 194 0.0 0.0 0.00 0.24 0.24 93 993.7
20260903235037 76 181 0.0 0.0 0.00 0.24 0.24 92 993.5
20260903233535 77 36 2.6 2.6 0.00 0.24 0.24 91 993.6
20260903232032 78 231 0.9 1.7 0.00 0.24 0.24 89 993.6
20260903230529 78 154 1.7 3.5 0.00 0.24 0.24 88 993.4
20260903225027 78 186 0.0 0.9 0.00 0.24 0.24 88 993.5
20260903223524 79 189 0.9 0.9 0.00 0.24 0.24 86 993.3
20260903222023 80 187 0.0 0.0 0.00 0.24 0.24 85 993.4
20260903220521 81 166 1.7 1.7 0.00 0.24 0.24 82 993.5
20260903215021 78 176 0.0 0.0 0.00 0.24 0.24 88 993.7
20260903213516 80 185 0.0 0.9 0.00 0.24 0.24 85 993.9
20260903212014 79 174 1.7 1.7 0.00 0.24 0.24 87 993.9
20260903210512 77 189 0.0 0.9 0.00 0.24 0.24 93 993.9
20260903205008 76 199 0.9 1.7 0.00 0.24 0.24 94 993.5
20260903203507 75 117 1.7 2.6 0.00 0.24 0.24 96 993.2
20260903202003 74 180 0.0 0.0 0.00 0.24 0.24 97 993.5
20260903200503 74 283 1.7 2.6 0.00 0.24 0.24 96 994.1